Prestonsburg, KY

9:23 AM EDT on May 26, 2017 (GMT -0400)
Prestonsburg

Weather History for KK22 - February, 2013

Change the Weather History Date:

Thursday, February 21, 2013

  Actual Average (KJKL) Record (KJKL)
Temperature  
Mean Temperature 27 °F -  
Max Temperature 38 °F 47 °F 75 °F (2017)
Min Temperature 16 °F 31 °F 14 °F (1988)
Degree Days  
Heating Degree Days 38    
Moisture  
Dew Point 15 °F    
Average Humidity 59    
Maximum Humidity 84    
Minimum Humidity 39    
Precipitation  
Precipitation 0.00 in - - ()
Sea Level Pressure  
Sea Level Pressure 30.21 in    
Wind  
Wind Speed 5 mph (NE)    
Max Wind Speed 12 mph    
Max Gust Speed 9 mph    
Visibility 10 miles    
Events Snow    
Averages and records for this station are not official NWS values.
T = Trace of Precipitation, MM = Missing Value Source: NWS Daily Summary

Daily Weather History Graph

Daily Weather History Graph

Search for Another Location

Airport or City:

Trip Planner

Search our weather history database for the weather conditions in past years. The results will help you decide how hot, cold, wet, or windy it might be!

Date:

Astronomy

Feb. 21, 2013 Rise Set
Actual Time 7:12 AM EST 6:16 PM EST
Civil Twilight 6:45 AM EST 6:42 PM EST
Nautical Twilight 6:15 AM EST 7:13 PM EST
Astronomical Twilight 5:45 AM EST 7:43 PM EST
Moon 2:32 PM EST (2/21) 4:13 AM EST (2/21)
Length of Visible Light 11h 57m
Length of Day
11h 03m
Waxing Gibbous, 83% of the Moon is Illuminated
Feb 21
Waxing Gibbous
Feb 25
Full
Mar 4
Last Quarter
Mar 11
New
Mar 19
First Quarter

Hourly Weather History & Observations

Time (EST) Temp. Windchill Dew Point Humidity Pressure Visibility Wind Dir Wind Speed Gust Speed Precip Events Conditions
12:15 AM 24.6 °F 20.3 °F 14.0 °F 64% 30.22 in 10.0 mi NNE 3.5 mph - N/A   Clear
12:35 AM 23.5 °F 15.4 °F 14.0 °F 67% 30.22 in 10.0 mi NNE 6.9 mph - N/A   Clear
12:55 AM 23.0 °F 17.0 °F 14.4 °F 70% 30.22 in 10.0 mi NNE 4.6 mph - N/A   Clear
1:15 AM 22.5 °F 17.8 °F 14.4 °F 71% 30.23 in 10.0 mi North 3.5 mph - N/A   Clear
1:35 AM 22.1 °F 15.9 °F 14.0 °F 71% 30.24 in 10.0 mi North 4.6 mph - N/A   Clear
1:55 AM 20.8 °F 14.4 °F 13.8 °F 74% 30.24 in 10.0 mi NNE 4.6 mph - N/A   Clear
2:15 AM 21.2 °F 13.6 °F 13.6 °F 73% 30.24 in 10.0 mi NNE 5.8 mph - N/A   Clear
2:35 AM 20.3 °F 12.5 °F 13.1 °F 74% 30.24 in 10.0 mi NNE 5.8 mph - N/A   Clear
2:55 AM 20.3 °F 13.8 °F 13.1 °F 74% 30.24 in 10.0 mi NNE 4.6 mph - N/A   Clear
3:15 AM 19.4 °F 14.3 °F 12.7 °F 75% 30.25 in 10.0 mi NNE 3.5 mph - N/A   Clear
3:35 AM 19.2 °F - 12.7 °F 76% 30.24 in 10.0 mi Calm Calm - N/A   Clear
3:55 AM 18.5 °F 13.3 °F 12.7 °F 78% 30.24 in 10.0 mi NE 3.5 mph - N/A   Clear
4:15 AM 18.5 °F 13.3 °F 12.7 °F 78% 30.24 in 10.0 mi NE 3.5 mph - N/A   Clear
4:35 AM 18.5 °F - 12.7 °F 78% 30.24 in 10.0 mi Calm Calm - N/A   Clear
4:55 AM 18.1 °F - 12.4 °F 78% 30.25 in 10.0 mi Calm Calm - N/A   Clear
5:15 AM 17.1 °F 8.7 °F 12.9 °F 84% 30.25 in 10.0 mi NE 5.8 mph - N/A   Clear
5:35 AM 17.4 °F 10.4 °F 13.1 °F 83% 30.26 in 10.0 mi NE 4.6 mph - N/A   Clear
6:15 AM 18.1 °F - 12.7 °F 79% 30.27 in 10.0 mi Calm Calm - N/A   Clear
6:55 AM 17.8 °F - 12.2 °F 79% 30.28 in 10.0 mi Calm Calm - N/A   Clear
7:15 AM 17.8 °F - 12.7 °F 81% 30.29 in 10.0 mi Calm Calm - N/A   Clear
7:35 AM 16.7 °F - 12.4 °F 83% 30.29 in 10.0 mi Calm Calm - N/A   Clear
7:55 AM 18.3 °F 13.1 °F 12.9 °F 79% 30.30 in 10.0 mi ENE 3.5 mph - N/A   Clear
8:15 AM 19.4 °F 14.3 °F 13.8 °F 79% 30.29 in 10.0 mi ENE 3.5 mph - N/A   Clear
8:35 AM 21.0 °F 12.4 °F 13.6 °F 73% 30.29 in 10.0 mi East 6.9 mph - N/A   Clear
8:55 AM 23.0 °F 14.7 °F 14.0 °F 68% 30.30 in 10.0 mi East 6.9 mph - N/A   Clear
9:15 AM 23.5 °F 16.4 °F 13.8 °F 66% 30.31 in 10.0 mi NE 5.8 mph - N/A   Clear
9:35 AM 24.6 °F 16.7 °F 13.5 °F 63% 30.30 in 10.0 mi East 6.9 mph - N/A   Clear
9:55 AM 25.5 °F 19.9 °F 13.5 °F 60% 30.30 in 10.0 mi East 4.6 mph - N/A   Clear
10:15 AM 26.2 °F 22.1 °F 13.1 °F 58% 30.31 in 10.0 mi East 3.5 mph - N/A   Clear
10:35 AM 27.1 °F 20.7 °F 13.5 °F 56% 30.29 in 10.0 mi East 5.8 mph - N/A   Clear
10:55 AM 28.4 °F 23.3 °F 13.8 °F 54% 30.27 in 10.0 mi SE 4.6 mph - N/A   Clear
11:15 AM 28.4 °F - 13.3 °F 53% 30.28 in 10.0 mi Calm Calm - N/A   Clear
11:35 AM 30.0 °F - 14.4 °F 52% 30.27 in 10.0 mi Calm Calm - N/A   Clear
11:55 AM 30.7 °F - 13.5 °F 49% 30.26 in 10.0 mi Calm Calm - N/A   Clear
12:15 PM 32.7 °F 25.7 °F 15.1 °F 48% 30.24 in 10.0 mi ENE 8.1 mph - N/A   Clear
12:35 PM 33.1 °F 27.7 °F 14.4 °F 46% 30.24 in 10.0 mi NE 5.8 mph - N/A   Clear
1:15 PM 34.9 °F 28.3 °F 14.9 °F 44% 30.20 in 10.0 mi East 8.1 mph - N/A   Clear
1:35 PM 36.0 °F 29.6 °F 14.5 °F 42% 30.19 in 10.0 mi East 8.1 mph - N/A   Clear
1:55 PM 36.7 °F 32.0 °F 14.7 °F 41% 30.19 in 10.0 mi East 5.8 mph - N/A   Clear
2:15 PM 38.5 °F 34.1 °F 15.8 °F 40% 30.19 in 10.0 mi ESE 5.8 mph - N/A   Clear
2:35 PM 38.5 °F 36.1 °F 15.6 °F 39% 30.19 in 10.0 mi SSE 3.5 mph - N/A   Clear
2:55 PM 37.9 °F - 15.3 °F 40% 30.19 in 10.0 mi Calm Calm - N/A   Clear
3:15 PM 38.7 °F 34.3 °F 15.8 °F 39% 30.17 in 10.0 mi NE 5.8 mph - N/A   Clear
3:35 PM 38.8 °F 35.4 °F 15.6 °F 39% 30.17 in 10.0 mi ENE 4.6 mph - N/A   Clear
3:55 PM 38.8 °F 34.6 °F 15.4 °F 39% 30.17 in 10.0 mi ENE 5.8 mph - N/A   Clear
4:15 PM 38.7 °F 33.6 °F 15.6 °F 39% 30.15 in 10.0 mi East 6.9 mph - N/A   Clear
4:35 PM 38.3 °F 33.2 °F 15.6 °F 40% 30.16 in 10.0 mi ENE 6.9 mph - N/A   Clear
4:55 PM 38.3 °F 33.2 °F 15.8 °F 40% 30.15 in 10.0 mi ENE 6.9 mph - N/A   Clear
5:15 PM 37.8 °F 33.3 °F 16.0 °F 41% 30.15 in 10.0 mi ENE 5.8 mph - N/A   Clear
5:35 PM 37.4 °F 31.4 °F 16.0 °F 42% 30.14 in 10.0 mi ENE 8.1 mph - N/A   Clear
5:55 PM 36.9 °F 30.7 °F 16.2 °F 43% 30.15 in 10.0 mi ENE 8.1 mph - N/A   Clear
6:15 PM 36.5 °F 29.2 °F 16.2 °F 44% 30.15 in 10.0 mi ENE 10.4 mph - N/A   Clear
6:35 PM 36.3 °F 28.9 °F 16.3 °F 44% 30.14 in 10.0 mi ENE 10.4 mph - N/A   Clear
6:55 PM 35.6 °F 28.6 °F 16.5 °F 46% 30.13 in 10.0 mi ENE 9.2 mph - N/A   Clear
7:15 PM 35.4 °F 27.3 °F 16.3 °F 46% 30.12 in 10.0 mi ENE 11.5 mph - N/A   Clear
7:35 PM 35.1 °F 27.4 °F 16.7 °F 47% 30.12 in 10.0 mi ENE 10.4 mph - N/A   Clear
7:55 PM 34.9 °F 27.7 °F 16.7 °F 48% 30.12 in 10.0 mi ENE 9.2 mph - N/A   Clear
8:15 PM 34.9 °F 26.6 °F 16.9 °F 48% 30.11 in 10.0 mi ENE 11.5 mph - N/A   Scattered Clouds
8:35 PM 34.7 °F 26.9 °F 17.2 °F 49% 30.10 in 10.0 mi ENE 10.4 mph - N/A   Mostly Cloudy
8:55 PM 34.7 °F 31.8 °F 16.9 °F 48% 30.12 in 10.0 mi ENE 3.5 mph - N/A   Mostly Cloudy
9:15 PM 34.3 °F 28.4 °F 17.4 °F 50% 30.11 in 10.0 mi NE 6.9 mph - N/A   Mostly Cloudy
9:35 PM 34.7 °F 31.8 °F 17.2 °F 49% 30.15 in 10.0 mi NNW 3.5 mph - N/A   Overcast
9:55 PM 34.0 °F 29.8 °F 17.4 °F 51% 30.14 in 10.0 mi NNE 4.6 mph - N/A   Overcast
10:15 PM 33.8 °F 28.6 °F 18.0 °F 52% 30.14 in 10.0 mi NNE 5.8 mph - N/A   Overcast
10:35 PM 33.3 °F 27.9 °F 17.8 °F 53% 30.12 in 10.0 mi NNE 5.8 mph 9.2 mph N/A   Overcast
10:55 PM 32.7 °F 28.3 °F 19.2 °F 58% 30.15 in 10.0 mi NNE 4.6 mph - N/A Snow Light Snow
11:15 PM 32.4 °F 26.0 °F 20.1 °F 61% 30.14 in 10.0 mi NE 6.9 mph - N/A Snow Light Snow
11:35 PM 32.0 °F 24.2 °F 23.0 °F 69% 30.12 in 10.0 mi ENE 9.2 mph - N/A   Overcast
11:55 PM 31.6 °F 25.1 °F 24.3 °F 74% 30.12 in 7.0 mi East 6.9 mph - N/A   Overcast